Regional Weather Roundup
Issued by NWS

Home | Current Version | Previous Version | Graphics & Text | Print | Product List | Glossary On
Versions: 1 2 3 4 5 6 7 8 9 10 11 12 13 14 15 16 17 18 19 20 21 22 23 24 25 26 27 28 29 30 31 32 33 34 35 36 37 38 39 40 41 42 43 44 45 46 47 48 49 50
000
ASUS43 KLOT 030421
RWRIL

ILLINOIS REGIONAL WEATHER ROUNDUP
NATIONAL WEATHER SERVICE CHICAGO/ROMEOVILLE IL
1100 PM CDT THU JUL 02 2015

NOTE: "FAIR" INDICATES FEW OR NO CLOUDS BELOW 12,000 FEET WITH NO
SIGNIFICANT WEATHER AND/OR OBSTRUCTIONS TO VISIBILITY.

* THESE STATIONS ARE NOT UNDER NWS QUALITY CONTROL. THEY ALSO MAY NOT
  REPORT WEATHER SUCH AS PRECIPITATION OR FOG.

ILZ001-002-007-009-015-016-024-030500-
NORTHWEST ILLINOIS

CITY           SKY/WX    TMP DP  RH WIND       PRES   REMARKS
MOLINE         CLOUDY    64  59  83 CALM      29.96S
STERLING*      MOCLDY    59  55  88 E5        29.98S
SAVANNA*       MOCLDY    59  52  78 NE5       29.98S
$$

ILZ003-004-008-010-011-017-018-030500-
NORTH CENTRAL ILLINOIS

CITY           SKY/WX    TMP DP  RH WIND       PRES   REMARKS
ROCKFORD       CLOUDY    61  53  75 E5        30.00S
FREEPORT*      CLOUDY    57  52  83 CALM      30.01S
ROCHELLE*      MOCLDY    58  55  90 NE5       30.00S
DE KALB*       MOCLDY    55  52  90 NE7       30.00S
PERU*          MOCLDY    62  56  80 E6        29.98S
$$

ILZ005-006-012>014-019>023-030500-
NORTHEAST ILLINOIS

CITY           SKY/WX    TMP DP  RH WIND       PRES   REMARKS
CHICAGO-OHARE  CLOUDY    58  48  69 N5        30.00S
CHICAGO-MIDWAY CLOUDY    62  51  67 NE9       29.99F
AURORA         MOCLDY    59  50  72 NE10      29.99S
LANSING*       MOCLDY    59  54  81 N3        29.99S
JOLIET*        PTCLDY    60  53  77 NE6       29.98S
WAUKEGAN       PTCLDY    54  48  80 N3        30.00S
DUPAGE AIRPORT MOCLDY    57  50  77 NE7       29.99S
KANKAKEE*      MOCLDY    59  56  91 N9        29.97S
WHEELING       MOCLDY    57  47  69 N3        30.02S
MORRIS*        MOCLDY    59  53  80 NE3       29.96F
ROMEOVILLE*    MOCLDY    58  50  74 NE12      29.99S
NORTHERLY ISL    N/A     59  50  72 N8          N/A
$$

LMZ740>746-030500-
SOUTHERN LAKE MICHIGAN

STATION/POSITION SKY/WX   TEMP    WIND        PRES    VSBY  WAVE
                          AIR SEA DIR/SP/G                  HT/PER
                          (F)     (DEG/KT/KT) (MB)    (MI)  (FT/S)
HARRISON CRIB              60     360/  9/ 12   N/A
BURNHAM HARBOR             59      10/  7/  9   N/A
CALUMET HARBOR             60     350/  5/  7   N/A
BURNS HARBOR               63      60/ 13/ 16 1016.3R
MICHIGAN CITY              60      30/ 10/ 11   N/A
MICHIGAN CITY 6N           62 63   70/ 10/ 14   N/A           4/ 5
ST. JOSEPH                 59 62                N/A           3/ 5
$$

ILZ025>027-034>036-040-047-049-050-058-095>099-030500-
WEST-CENTRAL ILLINOIS

CITY           SKY/WX    TMP DP  RH WIND       PRES   REMARKS
QUINCY         CLOUDY    65  61  87 NE7       29.94R
GALESBURG*     CLOUDY    61  58  88 NE5       29.96S
MACOMB*        CLOUDY    64  60  89 NE6       29.97S
JACKSONVILLE*  CLOUDY    66  64  91 N3        29.93S
PITTSFIELD*    CLOUDY    65  61  85 CALM      29.95S
$$

ILZ028>032-037-038-041>044-048-051>054-059>061-030500-
CENTRAL ILLINOIS

CITY           SKY/WX    TMP DP  RH WIND       PRES   REMARKS
PONTIAC        MOCLDY    62  58  87 NE12      29.97S
BLOOMINGTON    CLOUDY    64  60  87 NE9       29.97R
DECATUR        CLOUDY    66  61  84 NE10      29.92S
PEORIA         CLOUDY    70  57  63 NE6       29.95S
LACON*         MOCLDY    63  56  79 E8        29.95F
LINCOLN*       CLOUDY    67  60  78 NE10      29.93F
SPRINGFIELD    CLOUDY    69  62  78 N8        29.93R
TAYLORVILLE    CLOUDY    63  63 100 CALM      29.92S
$$

ILZ033-039-045-046-055>057-062-063-030500-
EAST-CENTRAL ILLINOIS

CITY           SKY/WX    TMP DP  RH WIND       PRES   REMARKS
CHAMPAIGN      CLOUDY    67  61  81 NE10      29.92S
DANVILLE*      MOCLDY    65  62  89 N7        29.90S
RANTOUL*       CLOUDY    66  61  84 NE9       29.94R
MATTOON        CLOUDY    68  65  90 N7        29.89F
PARIS*         MOCLDY    69  65  86 NE6       29.91S
$$

ILZ079-100>102-030500-
SOUTHWEST ILLINOIS

CITY           SKY/WX    TMP DP  RH WIND       PRES   REMARKS
ALTON          CLOUDY    67  67 100 CALM      29.92S
BELLEVILLE     PTCLDY    69  65  88 VRB3      29.90R
CAHOKIA*       PTCLDY    71  63  75 N6        29.91R
SPARTA*        CLOUDY    71  65  84 N7        29.91R
$$

ILZ064>066-069>071-074>076-080>082-084>086-088>090-092>094-030500-
SOUTH-CENTRAL ILLINOIS

CITY           SKY/WX    TMP DP  RH WIND       PRES   REMARKS
CARBONDALE     CLOUDY    72  70  93 CALM      29.88R
CAIRO*         CLOUDY    73  69  88 CALM      29.87R
EFFINGHAM*     CLOUDY    70  64  81 CALM      29.91S
MARION         CLOUDY    73  70  88 NW5       29.89R
MT. VERNON     MOCLDY    70  63  78 CALM      29.90R
CENTRALIA*     PTCLDY    69  63  82 N3        29.90R
SALEM*         MOCLDY    71  65  81 N6        29.89F
METROPOLIS*    CLOUDY    73  73  99 CALM      29.88R
$$

ILZ067-068-072-073-078-083-087-091-030500-
SOUTHEAST ILLINOIS

CITY           SKY/WX    TMP DP  RH WIND       PRES   REMARKS
LAWRENCEVILLE  CLOUDY    71  69  93 NW5       29.87S
FLORA*         PTCLDY    71  67  87 N3        29.88F
FAIRFIELD*     CLOUDY    72  69  92 N5        29.86F
HARRISBURG*    CLOUDY    73  72  97 CALM      29.88S
ROBINSON*      MOCLDY    70  68  92 N5        29.88F
CARMI*         CLOUDY    74  66  75 CALM      29.86S
$$

ABBREVIATIONS USED IN REMARKS
   TC - TEMPERATURE IN CELSIUS
  WCI - WIND CHILL INDEX
   HX - HEAT INDEX
  VSB - VISIBILITY
$$




USA.gov is the U.S. government's official web portal to all federal, state and local government web resources and services.